[[{"header":{"parameterUnit":"m.s-1","parameterCategory":1,"la1":30.2991,"la2":30.254,"lo1":-89.0895,"lo2":-89.0444,"dy":0.0017,"dx":0.0017,"nx":28,"ny":28,"refTime":"2025-06-22T09:00:00:Z","depth":0,"parameterNumber":2,"parameterNumberName":"U-component_of_WINDS"},"data":[0,0,0,0,0,0,0,0,0,0,0,0,0,0,0,0,0,0,0,0,0,0,0,0,0,0,0,0,0,0,0,0,0,0,0,0,0,0,0,0,0,0,0,0,0,0,0,0,0,0,0,0,0,0,0,0,0,0,-2.0763,-2.0762,0,-2.0683,-2.0682,-2.0681,-2.0603,-2.0602,-2.0601,-2.06,-2.0518,-2.0517,-2.0516,0,0,0,0,0,0,0,0,0,0,0,0,0,-2.0852,-2.085,-2.0763,-2.0762,-2.0761,-2.0683,-2.0682,-2.0681,-2.0603,-2.0601,-2.06,-2.0599,-2.0519,-2.0517,-2.0516,0,0,0,0,0,0,0,0,0,0,0,0,0,-2.0797,-2.085,-2.0763,-2.0713,-2.0707,-2.0683,-2.0682,-2.068,-2.0603,-2.0601,-2.06,-2.0599,-2.0519,-2.0517,-2.0516,-2.0535,0,0,-2.051,-2.0509,0,0,0,0,0,0,0,0,-2.08,-2.0793,-2.0721,-2.0716,-2.071,-2.0651,-2.0683,-2.0632,-2.0603,-2.0643,-2.06,-2.0598,-2.0564,-2.0558,-2.0546,-2.0531,-2.0528,-2.051,-2.0509,-2.0508,-2.0507,0,0,0,0,0,0,0,-2.0804,-2.0796,-2.0731,-2.072,-2.0713,-2.0695,-2.0685,-2.0673,-2.0613,-2.0639,-2.0633,-2.0625,-2.056,-2.0548,-2.0544,-2.0526,-2.051,-2.0508,-2.0507,-2.0506,-2.0525,-2.0526,0,0,0,0,0,0,-2.0815,-2.08,-2.0734,-2.0729,-2.0752,-2.0695,-2.0684,-2.0672,-2.0613,-2.0602,-2.0626,-2.0621,-2.0552,-2.0546,-2.0541,-2.056,-2.0508,-2.0506,-2.0505,-2.0523,-2.0525,-2.0527,0,0,0,0,0,0,-2.0817,-2.081,-2.0737,-2.0763,-2.0752,-2.0695,-2.0681,-2.0671,-2.0658,-2.0603,-2.0592,-2.0625,-2.0551,-2.0543,-2.0537,-2.0556,-2.0505,-2.0504,-2.0521,-2.0524,-2.0526,-2.0599,0,0,0,0,0,0,-2.082,-2.0811,-2.0817,-2.0763,-2.0751,-2.0734,-2.0683,-2.067,-2.0655,-2.0649,-2.0599,-2.0589,-2.0549,-2.054,-2.0536,-2.0553,-2.0502,-2.0519,-2.0523,-2.0525,-2.0595,-2.0604,-2.0611,0,0,0,0,0,-2.0823,-2.084,-2.0817,-2.081,-2.0757,-2.0735,-2.0728,-2.0682,-2.0657,-2.0663,-2.0628,-2.059,-2.0556,-2.054,-2.0534,-2.0551,-2.0518,-2.0522,-2.0525,-2.0591,-2.0602,-2.0611,0,0,0,0,0,0,-2.0897,-2.0832,-2.0806,-2.0806,-2.0777,-2.0722,-2.0728,-2.0695,-2.0672,-2.0666,-2.061,-2.0599,-2.06,-2.0575,-2.056,-2.0568,-2.0532,-2.0534,-2.0584,-2.0594,-2.0602,-2.0607,-2.0501,0,0,0,0,0,-2.0913,-2.09,-2.0845,-2.085,-2.0837,-2.0786,-2.0774,-2.0741,-2.0709,-2.0696,-2.066,-2.063,-2.0613,-2.0602,-2.0582,-2.0591,-2.058,-2.06,-2.0609,-2.0616,-2.0618,-2.0623,-2.0631,-2.0539,-2.0539,-2.0539,0,0,-2.0947,-2.091,-2.0905,-2.0864,-2.0837,-2.0826,-2.0775,-2.0765,-2.0756,-2.0694,-2.0686,-2.0659,-2.0623,-2.0625,-2.0624,-2.0604,-2.0642,-2.062,-2.0626,-2.0625,-2.0627,-2.0636,-2.0644,-2.0541,-2.0541,-2.054,0,0,-2.1001,-2.0972,-2.0974,-2.0949,-2.0909,-2.0875,-2.0876,-2.0827,-2.0807,-2.0798,-2.0751,-2.0741,-2.0712,-2.0688,-2.0672,-2.0721,-2.0686,-2.0717,-2.076,-2.0765,-2.0772,-2.0778,-2.0796,-2.0803,-2.072,-2.072,-2.072,0,-2.1048,-2.1028,-2.0979,-2.0972,-2.0956,-2.09,-2.0903,-2.0881,-2.0837,-2.0828,-2.0807,-2.077,-2.0741,-2.0738,-2.075,-2.0739,-2.0739,-2.0721,-2.0775,-2.0781,-2.0786,-2.0802,-2.0809,-2.0724,-2.0724,-2.0723,-2.0723,0,-2.1087,-2.1075,-2.1081,-2.1041,-2.1026,-2.1024,-2.0976,-2.0967,-2.0937,-2.0905,-2.0898,-2.0863,-2.0836,-2.0833,-2.0802,-2.0825,-2.0814,-2.0785,-2.0747,-2.0799,-2.0814,-2.082,-2.073,-2.0728,-2.0727,-2.0726,0,0,-2.1183,-2.1118,-2.1121,-2.1103,-2.1057,-2.1047,-2.1044,-2.1017,-2.1011,-2.0984,-2.098,-2.0958,-2.0931,-2.0913,-2.088,-2.0885,-2.0928,-2.0855,-2.0853,-2.087,-2.0952,-2.0974,-2.0982,-2.0905,-2.0906,-2.0907,-2.0955,0,-2.123,-2.1219,-2.1176,-2.1179,-2.1167,-2.1116,-2.1113,-2.1085,-2.1057,-2.1044,-2.1013,-2.0998,-2.0963,-2.0953,-2.0955,-2.0922,-2.0943,-2.0918,-2.0901,-2.0901,-2.0911,-2.099,-2.1012,-2.1059,-2.096,-2.0961,-2.0962,0,-2.1282,-2.1259,-2.126,-2.1216,-2.121,-2.1208,-2.1182,-2.117,-2.1138,-2.1118,-2.11,-2.1063,-2.1058,-2.1024,-2.1017,-2.1001,-2.0992,-2.0975,-2.0976,-2.0972,-2.0934,-2.0987,-2.1073,-2.108,-2.0971,-2.097,-2.0969,0,-2.1353,-2.1322,-2.1319,-2.1305,-2.1254,-2.1254,-2.1233,-2.1199,-2.1187,-2.1165,-2.1157,-2.1135,-2.1122,-2.1106,-2.1066,-2.1045,-2.1064,-2.1026,-2.1047,-2.1048,-2.1052,-2.1052,-2.1137,-2.1048,-2.1048,-2.1047,-2.1047,0,-2.1408,-2.1411,-2.135,-2.1348,-2.1351,-2.1303,-2.1307,-2.1281,-2.1252,-2.1246,-2.12,-2.1195,-2.1142,-2.1131,-2.11,-2.1099,-2.1094,-2.1078,-2.1069,-2.1081,-2.1083,-2.1074,-2.1069,-2.1049,-2.1049,-2.1049,-2.1048,0,-2.1486,-2.1445,-2.1439,-2.1392,-2.138,-2.1384,-2.1344,-2.1341,-2.1311,-2.1303,-2.1299,-2.1252,-2.1237,-2.1196,-2.117,-2.1149,-2.1158,-2.1142,-2.1168,-2.1163,-2.1186,-2.1185,-2.1268,-2.1276,-2.1182,-2.1183,-2.1184,0,-2.1524,-2.1525,-2.1479,-2.1471,-2.1452,-2.144,-2.1427,-2.1382,-2.1371,-2.1336,-2.1338,-2.132,-2.1303,-2.1282,-2.1246,-2.1227,-2.121,-2.1241,-2.1207,-2.122,-2.1211,-2.1211,-2.1212,-2.1248,-2.1249,-2.125,-2.1251,0,-2.1596,-2.1576,-2.156,-2.1538,-2.1524,-2.1504,-2.1482,-2.1479,-2.1427,-2.1418,-2.1402,-2.1389,-2.1364,-2.1347,-2.1323,-2.1302,-2.1269,-2.1263,-2.1266,-2.1278,-2.1293,-2.1286,-2.1188,-2.126,-2.1259,-2.1259,-2.1258,-2.1258,-2.1655,-2.1654,-2.1622,-2.1606,-2.1584,-2.1565,-2.1561,-2.1531,-2.1517,-2.1493,-2.1467,-2.1455,-2.1426,-2.139,-2.1372,-2.1363,-2.1344,-2.135,-2.1351,-2.1353,-2.1359,-2.1296,-2.1358,-2.1358,-2.1357,-2.1357,-2.1357,0,-2.1724,-2.1702,-2.1687,-2.1658,-2.1646,-2.1616,-2.1591,-2.1583,-2.1573,-2.1548,-2.1533,-2.1516,-2.15,-2.1465,-2.1446,-2.1445,-2.143,-2.1442,-2.1441,-2.1437,-2.1376,-2.1375,-2.1455,-2.1455,-2.1455,-2.1455,-2.1455,-2.1455,-2.1759,-2.1756,-2.1733,-2.1721,-2.1698,-2.1686,-2.1674,-2.1656,-2.1637,-2.162,-2.1607,-2.1584,-2.1555,-2.1534,-2.1519,-2.1509,-2.1504,-2.1522,-2.1507,-2.145,-2.1441,-2.1432,-2.143,-2.1521,-2.1521,-2.1568,-2.1569,-2.1569]},{"header":{"parameterUnit":"m.s-1","parameterCategory":1,"la1":30.2991,"la2":30.254,"lo1":-89.0895,"lo2":-89.0444,"dy":0.0017,"dx":0.0017,"nx":28,"ny":28,"refTime":"2025-06-22T09:00:00:Z","depth":0,"parameterNumber":3,"parameterNumberName":"V-component_of_WINDS"},"data":[0,0,0,0,0,0,0,0,0,0,0,0,0,0,0,0,0,0,0,0,0,0,0,0,0,0,0,0,0,0,0,0,0,0,0,0,0,0,0,0,0,0,0,0,0,0,0,0,0,0,0,0,0,0,0,0,0,0,2.3307,2.3307,0,2.3273,2.3273,2.3273,2.3311,2.3312,2.3314,2.3315,2.3275,2.3273,2.327,0,0,0,0,0,0,0,0,0,0,0,0,0,2.3401,2.3399,2.3307,2.3307,2.3307,2.3273,2.3273,2.3273,2.3311,2.3312,2.3314,2.3316,2.3276,2.3273,2.327,0,0,0,0,0,0,0,0,0,0,0,0,0,2.3363,2.3399,2.3307,2.3322,2.3323,2.3274,2.3273,2.3272,2.331,2.3313,2.3315,2.3317,2.3277,2.3273,2.327,2.3203,0,0,2.3259,2.3257,0,0,0,0,0,0,0,0,2.3365,2.3359,2.332,2.3321,2.3322,2.3299,2.3291,2.3249,2.331,2.3315,2.3315,2.3318,2.3281,2.3277,2.3266,2.3201,2.32,2.3258,2.3256,2.3255,2.3254,0,0,0,0,0,0,0,2.3368,2.3361,2.3294,2.3319,2.332,2.3328,2.3326,2.3284,2.3286,2.3315,2.3317,2.3313,2.3282,2.3269,2.3265,2.3199,2.3258,2.3255,2.3253,2.3252,2.3079,2.3076,0,0,0,0,0,0,2.3369,2.3363,2.3295,2.3293,2.3349,2.3325,2.3322,2.3304,2.3286,2.3286,2.3311,2.3315,2.3274,2.3269,2.3264,2.3185,2.3255,2.3251,2.3249,2.3081,2.3078,2.3075,0,0,0,0,0,0,2.3371,2.3363,2.3296,2.3329,2.3321,2.3321,2.3301,2.3302,2.329,2.3284,2.3284,2.3298,2.3276,2.3269,2.3218,2.3184,2.325,2.3246,2.3084,2.308,2.3077,2.3025,0,0,0,0,0,0,2.3374,2.3363,2.3339,2.3328,2.3319,2.3252,2.3299,2.33,2.3284,2.3288,2.3272,2.3271,2.3277,2.3224,2.3215,2.318,2.3243,2.3087,2.3082,2.3078,2.303,2.3021,2.3012,0,0,0,0,0,2.3377,2.3325,2.3338,2.3329,2.3289,2.325,2.3245,2.3255,2.3281,2.3256,2.3252,2.3272,2.3189,2.3218,2.3209,2.3172,2.3089,2.3084,2.3078,2.3034,2.3022,2.3013,0,0,0,0,0,0,2.333,2.3323,2.3338,2.3281,2.3266,2.3257,2.3225,2.3242,2.3218,2.3223,2.3234,2.323,2.3177,2.317,2.3202,2.3107,2.3143,2.3136,2.3113,2.3102,2.3093,2.3095,2.324,0,0,0,0,0,2.3313,2.3284,2.328,2.3229,2.3222,2.3225,2.3208,2.3217,2.3202,2.3195,2.3188,2.3171,2.3142,2.3122,2.3094,2.303,2.3026,2.3,2.2991,2.2984,2.2976,2.2942,2.293,2.3058,2.3058,2.3058,0,0,2.3277,2.327,2.3251,2.322,2.321,2.3178,2.3219,2.3184,2.316,2.3189,2.3142,2.3136,2.3118,2.306,2.3034,2.3052,2.2941,2.2977,2.2971,2.2968,2.2935,2.2923,2.2912,2.3054,2.3055,2.3055,0,0,2.3196,2.3188,2.3146,2.3135,2.312,2.3123,2.3113,2.3101,2.3099,2.3052,2.3074,2.3045,2.2994,2.298,2.2966,2.2881,2.2897,2.2872,2.2824,2.279,2.278,2.2771,2.2739,2.2728,2.2865,2.2865,2.2864,0,2.3153,2.3107,2.3121,2.3085,2.307,2.3098,2.3054,2.3043,2.3018,2.3007,2.3028,2.2965,2.2955,2.2894,2.2873,2.2862,2.2849,2.2873,2.278,2.2771,2.2763,2.2733,2.2722,2.2861,2.2862,2.2862,2.2862,0,2.3055,2.3023,2.299,2.2968,2.295,2.291,2.2916,2.2896,2.2907,2.2907,2.2858,2.2847,2.2818,2.2805,2.2814,2.2745,2.2757,2.2779,2.2816,2.2748,2.272,2.2709,2.2857,2.2858,2.2859,2.286,0,0,2.2941,2.2928,2.2916,2.2906,2.2892,2.2867,2.2828,2.2801,2.2783,2.2766,2.2732,2.2689,2.271,2.2694,2.2703,2.2673,2.2605,2.2699,2.2699,2.2681,2.2528,2.251,2.2497,2.2617,2.2615,2.2613,2.2529,0,2.2858,2.2793,2.2805,2.274,2.271,2.2736,2.2702,2.2689,2.2689,2.2662,2.2661,2.263,2.266,2.2651,2.2623,2.262,2.2574,2.2626,2.2584,2.2583,2.2587,2.2482,2.2464,2.2384,2.2518,2.2516,2.2515,0,2.2753,2.2734,2.2667,2.2658,2.2646,2.2615,2.2592,2.2567,2.2552,2.2554,2.2537,2.2551,2.2511,2.255,2.2494,2.2529,2.2513,2.2508,2.2506,2.2501,2.2544,2.2473,2.2359,2.2347,2.2498,2.25,2.2501,0,2.2675,2.2633,2.2587,2.2578,2.2567,2.2544,2.2538,2.2526,2.251,2.2489,2.2478,2.2452,2.2437,2.2417,2.2423,2.2451,2.2365,2.2405,2.2364,2.2363,2.2343,2.2344,2.2223,2.2335,2.2335,2.2335,2.2336,0,2.2582,2.2539,2.2552,2.2523,2.2476,2.2491,2.2443,2.244,2.2429,2.24,2.2421,2.2393,2.2404,2.2375,2.238,2.2332,2.2326,2.2325,2.2326,2.2322,2.2322,2.231,2.2315,2.2332,2.2333,2.2334,2.2334,0,2.2486,2.2493,2.2445,2.2439,2.2436,2.2402,2.2396,2.2369,2.2371,2.2333,2.2325,2.2327,2.2295,2.23,2.2264,2.2267,2.2208,2.2216,2.2213,2.2214,2.2173,2.2176,2.2039,2.2022,2.2146,2.2145,2.2144,0,2.2425,2.2393,2.2384,2.2367,2.236,2.2331,2.2315,2.2328,2.231,2.2291,2.2266,2.2237,2.2213,2.2161,2.2158,2.2131,2.2138,2.2092,2.2134,2.2131,2.2136,2.2137,2.2134,2.2083,2.2082,2.2081,2.208,0,2.2315,2.2321,2.2297,2.2275,2.2255,2.2238,2.2222,2.2206,2.2218,2.2196,2.2165,2.2147,2.2112,2.2081,2.2056,2.2048,2.2065,2.2067,2.2056,2.205,2.2049,2.2048,2.2189,2.207,2.2071,2.2071,2.2072,2.2072,2.2234,2.2207,2.2197,2.217,2.216,2.2145,2.212,2.2119,2.2094,2.2067,2.2076,2.204,2.2026,2.1994,2.1984,2.1955,2.1972,2.1956,2.1952,2.1947,2.1942,2.2056,2.1951,2.1951,2.1951,2.1951,2.1952,0,2.2125,2.212,2.2095,2.2074,2.2052,2.2073,2.2057,2.2037,2.2006,2.1993,2.197,2.1934,2.1905,2.1901,2.1874,2.1851,2.1858,2.1843,2.1844,2.1842,2.1929,2.1941,2.1838,2.1838,2.1838,2.1838,2.1838,2.1838,2.2065,2.202,2.2025,2.1975,2.197,2.1937,2.1926,2.1912,2.1902,2.1861,2.1838,2.1836,2.1826,2.1798,2.1772,2.1772,2.176,2.1742,2.1744,2.1825,2.1836,2.1847,2.1858,2.1739,2.1739,2.1659,2.1659,2.1658]}]]